Regional Weather Roundup
Issued by NWS

Home | Current Version | Previous Version | Text Only | Print | Product List | Glossary On
Versions: 1 2 3 4 5 6 7 8 9 10 11 12 13 14 15 16 17 18 19 20 21 22 23 24 25 26 27 28 29 30 31 32 33 34 35 36 37 38 39 40 41 42 43 44 45 46 47 48 49 50
000
ASUS45 KSLC 260310
RWRUT

UTAH REGIONAL WEATHER ROUNDUP
NATIONAL WEATHER SERVICE SALT LAKE CITY UT
900 PM MDT MON JUL 25 2016

UTZ001>011-023>025-260400-

NORTHERN UTAH

CITY           SKY/WX    TMP DP  RH WIND       PRES   REMARKS
BRIGHAM CITY     N/A     88  37  16 CALM      30.00R
HILL AFB       CLEAR     84  34  16 E5        30.04S
LOGAN          CLEAR     84  51  31 W3        30.01R
OGDEN          CLEAR     86  38  18 S6        30.00S
PROVO AIRPORT  PTCLDY    88  45  22 SE14      30.02R
SALT LAKE CITY PTCLDY    90  37  15 N5        29.97F
VERNAL         PTCLDY    81  38  21 W10       30.12S
WENDOVER       PTCLDY    90  30  12 W3        29.99S
HEBER CITY     CLEAR     77  37  24 E7        30.13R

$$

UTZ012>022-026-027-260400-

SOUTHERN/CENTRAL UTAH

CITY           SKY/WX    TMP DP  RH WIND       PRES   REMARKS
BLANDING       CLOUDY    82  38  21 N15G23    30.25S
BRYCE CANYON   LGT RAIN  71  40  32 E6        30.37F
CEDAR CITY     PTCLDY    86  38  18 SE15G28   30.13R
DELTA          PTCLDY    88  32  13 S13       30.03R
MILFORD        NOT AVBL
MOAB/CYNLANDS  MOCLDY    88  41  19 SE9       30.04S
PRICE          MOCLDY    80  33  18 N7        30.18R
ST GEORGE      CLEAR    102  45  14 W8        29.91R HX  98

$$

REGIONAL REPORTS     COLORADO/ARIZONA

CITY           SKY/WX    TMP DP  RH WIND       PRES   REMARKS
CRAIG, CO      CLOUDY    79  34  19 E12       30.23R
GRAND JUNCTION MOCLDY    87  39  18 W18G28    30.13R
RIFLE          CLEAR     84  39  20 NW5       30.15R
MONTROSE       CLOUDY    79  43  27 S8        30.21R
CORTEZ         CLOUDY    80  44  27 NW8       30.20R
PAGE, AZ       CLOUDY    94  45  18 CALM      30.03R HX  90
GRAND CANYON   CLOUDY    71  47  42 CALM      30.32R
KINGMAN        PTCLDY    84  56  38 E28       29.99S
FLAGSTAFF      CLOUDY    58  56  93 NE6       30.34F

$$

REGIONAL REPORTS    NEVADA/IDAHO/WYOMING

CITY           SKY/WX    TMP DP  RH WIND       PRES   REMARKS
LAS VEGAS, NV  PTCLDY   105  35   9 SW6       29.78R HX  99
ELY            CLEAR     75  22  13 S8        30.14R
ELKO           CLEAR     87   9   5 W8        30.06R
POCATELLO, ID  CLEAR     78  40  25 S7        30.04R
BURLEY         CLEAR     75  49  39 S7        30.00S
EVANSTON, WY   CLEAR     75  22  13 W9        30.26S
ROCK SPRINGS   CLOUDY    76  30  18 SW9       30.24F
KEMMERER         N/A    N/A N/A N/A NW8       30.27S

$$



USA.gov is the U.S. government's official web portal to all federal, state and local government web resources and services.